Regional Weather Roundup
Issued by NWS

Home | Current Version | Previous Version | Graphics & Text | Print | Product List | Glossary On
Versions: 1 2 3 4 5 6 7 8 9 10 11 12 13 14 15 16 17 18 19 20 21 22 23 24 25 26 27 28 29 30 31 32 33 34 35 36 37 38 39 40 41 42 43 44 45 46 47 48 49 50
000
ASUS45 KTFX 301504
RWRMT
MONTANA HOURLY WEATHER ROUNDUP
NATIONAL WEATHER SERVICE GREAT FALLS MT
804 AM MST FRI JAN 30 2015

NOTE: "FAIR" INDICATES FEW OR NO CLOUDS BELOW 12000 FEET WITH NO
SIGNIFICANT WEATHER AND/OR OBSTRUCTIONS TO VISIBILITY.

* THESE STATIONS ARE NOT UNDER NWS QUALITY CONTROL. THEY DO NOT
   REPORT WEATHER SUCH AS PRECIPITATION OR FOG.

MTZ001>007-043-301600-
WEST OF THE DIVIDE
CITY           SKY/WX    TMP DP  RH WIND       PRES   REMARKS
KALISPELL      FOG       12  10  92 CALM      30.37S VSB M1/4
MISSOULA       FOG       16  12  84 CALM      30.37S VSB 3
BUTTE          PTCLDY    14  10  84 CALM      30.27S
MULLAN PASS    SUNNY     28  18  66 NW3       30.24S
* ANACONDA     PTCLDY    21  12  68 N/A        N/A
* ESSEX        N/A       10   7  88 N/A        N/A
* LINCOLN      N/A        9   5  84 NE1        N/A
* LOOKOUT PASS N/A       22  21  96 S2         N/A
* POLSON       N/A       24  23  96 N/A        N/A
* RONAN APT    PTCLDY    21  19  92 N/A        N/A
* SEELEY LAKE  N/A        3  -2  79 N/A        N/A
* THOMP F APT  SUNNY     25  19  78 NE3        N/A
$$

MTZ008-052>055-301600-
SOUTHWEST MONTANA
CITY           SKY/WX    TMP DP  RH WIND       PRES   REMARKS
BOZEMAN        PTCLDY    19  16  88 SE3       30.28S
DILLON         PTSUNNY   19  12  74 S13       30.26S WCI   6
* W YELLOWSTON PTSUNNY    7   3  83 N/A        N/A
* THREE FORKS  PTCLDY    19   1  45 N/A        N/A
* BOULDER HILL N/A       25  11  55 S7         N/A   WCI  17
* MONIDA PASS  N/A       11  10  96 W4         N/A
* RAYNOLDS PAS N/A       12  -2  53 S2         N/A
* WHITEHALL    N/A       20  17  88 N3         N/A
* WISE RIVER   N/A        9   6  87 W6         N/A   WCI  -1
$$

MTZ009>010-012-014-046-048-049-054-301600-
EAST SLOPES AND CENTRAL MONTANA
CITY           SKY/WX    TMP DP  RH WIND       PRES   REMARKS
CUT BANK       SUNNY     21  14  74 N8        30.19S WCI  11
GREAT FALLS    SUNNY     23  18  81 SW7       30.20S WCI  15
HELENA         PTCLDY    23  19  85 SW3       30.27F
MALMSTROM AFB  SUNNY     23  18  81 SW7       30.21S WCI  15
* DEARBORN     N/A       26  21  81 SW3        N/A
* EAST GLACIER N/A       30  13  49 W12G20     N/A   WCI  20
* MONARCH      N/A       23   7  50 S6         N/A   WCI  16
* PENDROY      N/A       27   4  37 SW1        N/A
* ROGERS PASS  N/A       23  17  78 S5G12      N/A   WCI  16
* SWEET GRASS  N/A       34   9  35 S4         N/A
$$

MTZ011-013-016-021-035-040-045-047-050-051-301600-
NORTH CENTRAL MONTANA
CITY           SKY/WX    TMP DP  RH WIND       PRES   REMARKS
HAVRE          PTCLDY    21  18  88 W6        30.22R WCI  13
LEWISTOWN      PTCLDY    25  12  58 SE5       30.20S WCI  19
* CHESTER      N/A       20  15  81 S4         N/A
* DENTON       N/A       21  14  74 S4         N/A
* GEYSER       N/A       25  10  53 SW9        N/A   WCI  16
* JUDITH GAP   N/A       30  10  43 VRB5       N/A   WCI  25
* LOMA         N/A       24  19  81 SW4        N/A
$$

MTZ017>020-022>027-061-062-301600-
NORTHEAST MONTANA
CITY           SKY/WX    TMP DP  RH WIND       PRES   REMARKS
GLASGOW        FOG       19  18  96 NW10      30.20R VSB M1/4 WCI   8
GLENDIVE       SUNNY     25  19  78 CALM      30.19R
JORDAN         SUNNY     25  21  85 W8        30.20R WCI  16
SIDNEY         SUNNY     23  19  85 S6        30.19S WCI  16
WOLF POINT     SUNNY     21  18  88 SW8       30.21R WCI  11
* BEAVER HILL  N/A       28  22  78 S4G9       N/A
* CIRCLE       N/A       26  24  92 SW4        N/A
* LINDSAY DVD  N/A       29  24  82 W7         N/A   WCI  22
* NAVAJO       N/A       28  26  92 NW14       N/A   WCI  17
* SACO         N/A       16  14  92 W2         N/A
$$

MTZ028>042-056>058-301600-
SOUTHCENTRAL AND SOUTHEAST MONTANA
CITY           SKY/WX    TMP DP  RH WIND       PRES   REMARKS
BAKER          SUNNY     28  23  81 W5        30.18R WCI  22
BILLINGS       PTSUNNY   32  21  64 SW10      30.23R WCI  24
LIVINGSTON     PTSUNNY   30  18  61 W14       30.23S WCI  19
MILES CITY     SUNNY     23  19  85 SW5       30.21R WCI  16
* LAUREL APT   PTSUNNY   27  16  63 W6         N/A   WCI  20
* ROUNDUP APT  PTCLDY    27  18  69 SW10       N/A   WCI  18
* ALZADA       N/A       26  21  81 NW4        N/A
* HYSHAM       N/A       31  25  78 W5         N/A   WCI  26
* LAME DEER    N/A       32  22  67 W11        N/A   WCI  23
* REED POINT   N/A       21  20  96 N/A        N/A
* ROSCOE HILL  N/A       31  -2  24 SW4        N/A
$$

REGIONAL REPORTS...DAKOTAS
CITY           SKY/WX    TMP DP  RH WIND       PRES   REMARKS
WILLISTON      SUNNY     21  18  88 CALM      30.17R
DICKINSON      SUNNY     27  19  72 W9        30.12R WCI  18
CROSBY         SUNNY     25  25 100 W10       30.16R WCI  15
WATFORD CITY   SUNNY     25  21  85 SW8       30.14R WCI  16
BISMARCK       SUNNY     19  18  96 SE3       30.20F
GRAND FORKS    CLOUDY    12   7  80 S16       30.33F WCI  -5
FARGO          PTSUNNY   12   7  80 SE14      30.38F WCI  -4
BUFFALO SD     PTCLDY    21  16  81 W5        30.10S WCI  14
RAPID CITY     PTSUNNY   23  18  81 NW3       30.17S
$$

REGIONAL REPORTS...WYOMING/IDAHO/WASHINGTON
CITY           SKY/WX    TMP DP  RH WIND       PRES   REMARKS
GILLETTE       PTSUNNY   21  19  92 S3        30.19S
SHERIDAN       PTSUNNY   21  16  81 CALM      30.22R
CODY           PTSUNNY   23  16  74 CALM      30.21R
YELLOWSTONE LA PTSUNNY   -4  -9  79 CALM      30.27F
SALMON         CLOUDY    25  21  85 CALM      30.36F
MULLAN PASS    SUNNY     28  18  66 NW3       30.24S
SAND POINT     CLOUDY    27  27 100 CALM      30.39S
SPOKANE        FOG       30  28  92 NE5       30.35F VSB M1/4 WCI  25
$$

REGIONAL REPORTS...SASKATCHEWAN
CITY           SKY/WX    TMP DP  RH WIND       PRES   REMARKS
REGINA         CLOUDY    19  19 100 NW15      30.17R WCI   5

$$



USA.gov is the U.S. government's official web portal to all federal, state and local government web resources and services.